Location: Sungai Bunut
(2.6333°N, 113.7333°E)
Time: 16:27:14
(UTC+00:00)

Vanguard 3 - Pass Details

Date: 05 December 2023
Orbit: 508 x 3239 km, 33.3° (Epoch: 21 February)

Event Time Altitude Azimuth Distance (km) Brightness Sun altitude
Rises 10:16:33 0° 232° (SW) 7,047 13.8 -1.2°
Reaches altitude 10° 10:21:08 10° 231° (SW) 6,133 13.2 -2.3°
Maximum altitude 10:41:20 85° 143° (SE) 2,955 10.0 -7.0°
Enters shadow 10:55:55 11° 56° (NE) 4,652 10.4 -10.3°
Drops below altitude 10° 10:56:03 10° 56° (NE) 4,684 - -10.4°
Sets 10:59:02 0° 56° (NE) 5,385 - -11.1°
